Time,TemperatureF,DewpointF,PressureIn,WindDirection,WindDirectionDegrees,WindSpeedMPH,WindSpeedGustMPH,Humidity,HourlyPrecipIn,Conditions,Clouds,dailyrainin,SolarRadiationWatts/m^2,SoftwareType,DateUTC
2013-11-01 00:00:00,59.3,49.5,29.85,NNW,335,0.0,0.0,70,0.00,,CLR,0.00,0.00,VWS V15.00,2013-11-01 05:00:00,
2013-11-01 00:02:00,58.6,50.0,29.84,NNW,335,0.0,2.0,73,0.00,,CLR,0.00,0.00,VWS V14.01,2013-11-01 05:02:00,
2013-11-01 00:07:00,58.6,50.0,29.84,NNW,335,0.0,2.0,73,0.00,,CLR,0.00,0.00,VWS V14.01,2013-11-01 05:07:00,
2013-11-01 00:10:00,59.2,49.8,29.85,NNW,335,0.0,1.0,71,0.00,,CLR,0.00,0.00,VWS V15.00,2013-11-01 05:10:00,
2013-11-01 00:12:00,58.7,50.8,29.84,NNW,335,2.0,3.0,75,0.00,,CLR,0.00,0.00,VWS V14.01,2013-11-01 05:12:00,
2013-11-01 00:17:00,58.9,51.0,29.84,NNW,335,2.0,2.0,75,0.00,,CLR,0.00,0.00,VWS V14.01,2013-11-01 05:17:00,
2013-11-01 00:20:00,58.9,49.5,29.85,NNW,335,0.0,2.0,71,0.00,,CLR,0.00,0.00,VWS V15.00,2013-11-01 05:20:00,
2013-11-01 00:22:00,59.0,51.1,29.85,NNW,335,1.0,3.0,75,0.00,,CLR,0.00,0.00,VWS V14.01,2013-11-01 05:22:00,
2013-11-01 00:27:00,59.3,52.1,29.85,NNW,335,2.0,5.0,77,0.00,,CLR,0.00,0.00,VWS V14.01,2013-11-01 05:27:00,
2013-11-01 00:32:00,59.3,52.1,29.85,NNW,335,2.0,5.0,77,0.00,,CLR,0.00,0.00,VWS V14.01,2013-11-01 05:32:00,
2013-11-01 00:37:00,59.2,52.0,29.84,NNW,333,3.0,4.0,77,0.00,,CLR,0.00,0.00,VWS V14.01,2013-11-01 05:37:00,
2013-11-01 00:40:00,58.4,49.0,29.85,NNW,335,0.0,3.0,71,0.00,,CLR,0.00,0.00,VWS V15.00,2013-11-01 05:40:00,
2013-11-01 00:42:00,59.2,52.0,29.84,NNW,333,1.0,4.0,77,0.00,,CLR,0.00,0.00,VWS V14.01,2013-11-01 05:42:00,
2013-11-01 00:45:00,59.2,52.3,29.84,NNW,333,0.0,0.0,78,0.00,,CLR,0.00,0.00,VWS V14.01,2013-11-01 05:45:00,
2013-11-01 00:50:00,59.2,52.3,29.84,NNW,333,1.0,3.0,78,0.00,,CLR,0.00,0.00,VWS V14.01,2013-11-01 05:50:00,
2013-11-01 00:55:00,59.0,52.2,29.84,NNW,333,1.0,3.0,78,0.00,,CLR,0.00,0.00,VWS V14.01,2013-11-01 05:55:00,
2013-11-01 01:00:00,58.9,52.1,29.84,NNW,333,0.0,3.0,78,0.00,,CLR,0.00,0.00,VWS V14.01,2013-11-01 06:00:00,
2013-11-01 01:05:00,58.7,51.9,29.84,NNW,333,1.0,3.0,78,0.00,,CLR,0.00,0.00,VWS V14.01,2013-11-01 06:05:00,
2013-11-01 01:10:00,58.7,52.2,29.84,NNW,333,0.0,3.0,79,0.00,,CLR,0.00,0.00,VWS V14.01,2013-11-01 06:10:00,
2013-11-01 01:15:00,58.7,52.2,29.84,NNW,333,0.0,1.0,79,0.00,,CLR,0.00,0.00,VWS V14.01,2013-11-01 06:15:00,
2013-11-01 01:20:00,58.6,52.5,29.83,NNW,333,2.0,2.0,80,0.00,,CLR,0.00,0.00,VWS V14.01,2013-11-01 06:20:00,
2013-11-01 01:25:00,58.6,52.5,29.83,NNW,333,2.0,2.0,80,0.00,,CLR,0.00,0.00,VWS V14.01,2013-11-01 06:25:00,
2013-11-01 01:30:00,58.4,52.6,29.83,NNW,333,0.0,2.0,81,0.00,,CLR,0.00,0.00,VWS V14.01,2013-11-01 06:30:00,
2013-11-01 01:35:00,58.4,52.6,29.83,NNW,333,0.0,1.0,81,0.00,,CLR,0.00,0.00,VWS V14.01,2013-11-01 06:35:00,
2013-11-01 01:40:00,58.3,52.5,29.83,NNW,333,0.0,3.0,81,0.00,,CLR,0.00,0.00,VWS V14.01,2013-11-01 06:40:00,
2013-11-01 01:45:00,58.3,52.8,29.83,NNW,333,1.0,1.0,82,0.00,,CLR,0.00,0.00,VWS V14.01,2013-11-01 06:45:00,
2013-11-01 01:50:00,58.1,52.6,29.83,NNW,333,0.0,1.0,82,0.00,,CLR,0.00,0.00,VWS V14.01,2013-11-01 06:50:00,
2013-11-01 01:55:00,58.0,52.5,29.83,NNW,333,0.0,0.0,82,0.00,,CLR,0.00,0.00,VWS V14.01,2013-11-01 06:55:00,
2013-11-01 02:00:00,57.8,52.3,29.83,NNW,333,0.0,1.0,82,0.00,,CLR,0.00,0.00,VWS V14.01,2013-11-01 07:00:00,
2013-11-01 02:05:00,57.5,52.1,29.83,NNW,333,0.0,0.0,82,0.00,,CLR,0.00,0.00,VWS V14.01,2013-11-01 07:05:00,
2013-11-01 02:10:00,57.2,51.8,29.83,NNW,333,1.0,2.0,82,0.00,,CLR,0.00,0.00,VWS V14.01,2013-11-01 07:10:00,
2013-11-01 02:15:00,57.0,51.6,29.83,NNW,333,2.0,3.0,82,0.00,,CLR,0.00,0.00,VWS V14.01,2013-11-01 07:15:00,
2013-11-01 02:20:00,56.9,51.5,29.83,WNW,300,3.0,4.0,82,0.00,,CLR,0.00,0.00,VWS V14.01,2013-11-01 07:20:00,
2013-11-01 02:25:00,57.0,51.2,29.83,South,184,2.0,6.0,81,0.00,,CLR,0.00,0.00,VWS V14.01,2013-11-01 07:25:00,
2013-11-01 02:30:00,57.0,50.2,29.83,SSW,195,6.0,10.0,78,0.00,,CLR,0.00,0.00,VWS V14.01,2013-11-01 07:30:00,
2013-11-01 02:35:00,57.2,49.7,29.83,South,175,3.0,6.0,76,0.00,,CLR,0.00,0.00,VWS V14.01,2013-11-01 07:35:00,
2013-11-01 02:40:00,57.2,49.7,29.83,South,179,5.0,6.0,76,0.00,,CLR,0.00,0.00,VWS V14.01,2013-11-01 07:40:00,
2013-11-01 02:45:00,57.0,49.5,29.83,South,178,4.0,8.0,76,0.00,,CLR,0.00,0.00,VWS V14.01,2013-11-01 07:45:00,
2013-11-01 02:50:00,57.2,50.1,29.83,South,178,4.0,8.0,77,0.00,,CLR,0.00,0.00,VWS V14.01,2013-11-01 07:50:00,
2013-11-01 02:55:00,57.0,49.9,29.83,South,178,3.0,4.0,77,0.00,,CLR,0.00,0.00,VWS V14.01,2013-11-01 07:55:00,
2013-11-01 03:00:00,56.7,49.6,29.83,South,178,3.0,4.0,77,0.00,,CLR,0.00,0.00,VWS V14.01,2013-11-01 08:00:00,
2013-11-01 03:05:00,56.3,48.8,29.82,South,178,3.0,4.0,76,0.00,,CLR,0.00,0.00,VWS V14.01,2013-11-01 08:05:00,
2013-11-01 03:10:00,56.2,48.4,29.82,South,178,2.0,4.0,75,0.00,,CLR,0.00,0.00,VWS V14.01,2013-11-01 08:10:00,
2013-11-01 03:15:00,56.2,48.4,29.82,South,178,2.0,3.0,75,0.00,,CLR,0.00,0.00,VWS V14.01,2013-11-01 08:15:00,
2013-11-01 03:20:00,56.2,48.4,29.82,South,178,2.0,4.0,75,0.00,,CLR,0.00,0.00,VWS V14.01,2013-11-01 08:20:00,
2013-11-01 03:25:00,56.0,48.2,29.82,South,178,1.0,3.0,75,0.00,,CLR,0.00,0.00,VWS V14.01,2013-11-01 08:25:00,
2013-11-01 03:30:00,55.9,48.1,29.82,South,178,2.0,3.0,75,0.00,,CLR,0.00,0.00,VWS V14.01,2013-11-01 08:30:00,
2013-11-01 03:35:00,55.7,47.9,29.82,South,178,2.0,3.0,75,0.00,,CLR,0.00,0.00,VWS V14.01,2013-11-01 08:35:00,
2013-11-01 03:40:00,55.7,47.5,29.82,South,178,0.0,3.0,74,0.00,,CLR,0.00,0.00,VWS V14.01,2013-11-01 08:40:00,
2013-11-01 03:45:00,55.6,47.5,29.82,South,178,0.0,0.0,74,0.00,,CLR,0.00,0.00,VWS V14.01,2013-11-01 08:45:00,
2013-11-01 03:50:00,55.6,47.5,29.82,South,178,0.0,0.0,74,0.00,,CLR,0.00,0.00,VWS V14.01,2013-11-01 08:50:00,
2013-11-01 03:55:00,55.4,47.6,29.82,South,178,0.0,1.0,75,0.00,,CLR,0.00,0.00,VWS V14.01,2013-11-01 08:55:00,
2013-11-01 04:00:00,55.4,47.6,29.82,South,178,0.0,1.0,75,0.00,,CLR,0.00,0.00,VWS V14.01,2013-11-01 09:00:00,
2013-11-01 04:05:00,55.3,47.5,29.81,South,178,4.0,4.0,75,0.00,,CLR,0.00,0.00,VWS V14.01,2013-11-01 09:05:00,
2013-11-01 04:10:00,55.1,47.3,29.81,South,178,2.0,4.0,75,0.00,,CLR,0.00,0.00,VWS V14.01,2013-11-01 09:10:00,
2013-11-01 04:15:00,55.3,47.5,29.81,South,178,1.0,3.0,75,0.00,,CLR,0.00,0.00,VWS V14.01,2013-11-01 09:15:00,
2013-11-01 04:20:00,55.3,47.5,29.81,South,178,0.0,3.0,75,0.00,,CLR,0.00,0.00,VWS V14.01,2013-11-01 09:20:00,
2013-11-01 04:25:00,55.4,47.6,29.81,South,178,0.0,1.0,75,0.00,,CLR,0.00,0.00,VWS V14.01,2013-11-01 09:25:00,
2013-11-01 04:30:00,55.3,47.9,29.81,South,178,0.0,1.0,76,0.00,,CLR,0.00,0.00,VWS V14.01,2013-11-01 09:30:00,
2013-11-01 04:35:00,55.3,47.9,29.81,South,178,0.0,0.0,76,0.00,,CLR,0.00,0.00,VWS V14.01,2013-11-01 09:35:00,
2013-11-01 04:40:00,55.3,47.9,29.81,South,178,0.0,0.0,76,0.00,,CLR,0.00,0.00,VWS V14.01,2013-11-01 09:40:00,
2013-11-01 04:45:00,55.1,48.0,29.81,South,178,1.0,1.0,77,0.00,,CLR,0.00,0.00,VWS V14.01,2013-11-01 09:45:00,
2013-11-01 04:50:00,55.1,48.4,29.81,South,178,0.0,1.0,78,0.00,,CLR,0.00,0.00,VWS V14.01,2013-11-01 09:50:00,
2013-11-01 04:55:00,55.3,49.2,29.81,South,178,1.0,3.0,80,0.00,,CLR,0.00,0.00,VWS V14.01,2013-11-01 09:55:00,
2013-11-01 05:00:00,55.4,49.3,29.81,South,178,2.0,4.0,80,0.00,,CLR,0.00,0.00,VWS V14.01,2013-11-01 10:00:00,
2013-11-01 05:05:00,55.6,49.9,29.81,South,178,1.0,3.0,81,0.00,,CLR,0.00,0.00,VWS V14.01,2013-11-01 10:05:00,
2013-11-01 05:10:00,55.9,50.2,29.81,South,178,3.0,4.0,81,0.00,,CLR,0.00,0.00,VWS V14.01,2013-11-01 10:10:00,
2013-11-01 05:15:00,55.9,50.2,29.81,South,178,2.0,4.0,81,0.00,,CLR,0.00,0.00,VWS V14.01,2013-11-01 10:15:00,
2013-11-01 05:20:00,56.0,50.3,29.81,South,178,4.0,4.0,81,0.00,,CLR,0.00,0.00,VWS V14.01,2013-11-01 10:20:00,
2013-11-01 05:25:00,55.9,49.5,29.81,South,178,3.0,4.0,79,0.00,,CLR,0.00,0.00,VWS V14.01,2013-11-01 10:25:00,
2013-11-01 05:30:00,55.7,49.0,29.81,South,178,3.0,6.0,78,0.00,,CLR,0.00,0.00,VWS V14.01,2013-11-01 10:30:00,
2013-11-01 05:35:00,55.7,49.0,29.81,South,178,2.0,4.0,78,0.00,,CLR,0.00,0.00,VWS V14.01,2013-11-01 10:35:00,
2013-11-01 05:40:00,55.7,48.6,29.81,South,178,2.0,6.0,77,0.00,,CLR,0.00,0.00,VWS V14.01,2013-11-01 10:40:00,
2013-11-01 05:45:00,55.9,48.5,29.81,South,179,3.0,6.0,76,0.00,,CLR,0.00,0.00,VWS V14.01,2013-11-01 10:45:00,
2013-11-01 05:50:00,55.9,48.8,29.81,South,179,4.0,6.0,77,0.00,,CLR,0.00,0.00,VWS V14.01,2013-11-01 10:50:00,
2013-11-01 05:55:00,55.9,48.8,29.81,South,179,2.0,3.0,77,0.00,,CLR,0.00,0.00,VWS V14.01,2013-11-01 10:55:00,
2013-11-01 06:00:00,55.7,48.6,29.81,South,179,4.0,4.0,77,0.00,,CLR,0.00,0.00,VWS V14.01,2013-11-01 11:00:00,
2013-11-01 06:05:00,55.6,48.5,29.81,South,179,2.0,3.0,77,0.00,,CLR,0.00,0.00,VWS V14.01,2013-11-01 11:05:00,
2013-11-01 06:10:00,55.4,48.3,29.81,South,179,0.0,3.0,77,0.00,,CLR,0.00,0.00,VWS V14.01,2013-11-01 11:10:00,
2013-11-01 06:15:00,55.3,48.2,29.81,South,179,2.0,4.0,77,0.00,,CLR,0.00,0.00,VWS V14.01,2013-11-01 11:15:00,
2013-11-01 06:20:00,55.1,48.0,29.81,South,179,2.0,4.0,77,0.00,,CLR,0.00,0.00,VWS V14.01,2013-11-01 11:20:00,
2013-11-01 06:25:00,55.0,47.6,29.81,South,179,3.0,3.0,76,0.00,,CLR,0.00,0.00,VWS V14.01,2013-11-01 11:25:00,
2013-11-01 06:30:00,54.8,47.0,29.81,South,179,2.0,4.0,75,0.00,,CLR,0.00,0.00,VWS V14.01,2013-11-01 11:30:00,
2013-11-01 06:35:00,54.8,47.0,29.81,South,179,1.0,3.0,75,0.00,,CLR,0.00,0.00,VWS V14.01,2013-11-01 11:35:00,
2013-11-01 06:40:00,54.7,46.9,29.81,South,179,2.0,3.0,75,0.00,,CLR,0.00,0.00,VWS V14.01,2013-11-01 11:40:00,
2013-11-01 06:45:00,54.7,47.3,29.81,South,179,1.0,3.0,76,0.00,,CLR,0.00,0.00,VWS V14.01,2013-11-01 11:45:00,
2013-11-01 06:50:00,54.5,47.1,29.82,South,179,0.0,3.0,76,0.00,,CLR,0.00,0.00,VWS V14.01,2013-11-01 11:50:00,
2013-11-01 06:55:00,54.5,47.1,29.82,South,179,0.0,0.0,76,0.00,,CLR,0.00,0.00,VWS V14.01,2013-11-01 11:55:00,
2013-11-01 07:00:00,54.5,47.5,29.82,South,179,0.0,2.0,77,0.00,,CLR,0.00,0.00,VWS V14.01,2013-11-01 12:00:00,
2013-11-01 07:05:00,54.4,47.3,29.83,South,179,1.0,2.0,77,0.00,,CLR,0.00,0.00,VWS V14.01,2013-11-01 12:05:00,
2013-11-01 07:10:00,54.4,47.7,29.83,South,179,2.0,3.0,78,0.00,,CLR,0.00,0.00,VWS V14.01,2013-11-01 12:10:00,
2013-11-01 07:15:00,54.5,47.8,29.83,South,179,1.0,3.0,78,0.00,,CLR,0.00,0.00,VWS V14.01,2013-11-01 12:15:00,
2013-11-01 07:20:00,54.7,48.3,29.83,South,179,4.0,4.0,79,0.00,,CLR,0.00,0.00,VWS V14.01,2013-11-01 12:20:00,
2013-11-01 07:25:00,55.0,48.6,29.83,South,179,3.0,5.0,79,0.00,,CLR,0.00,0.00,VWS V14.01,2013-11-01 12:25:00,
2013-11-01 07:30:00,55.0,48.3,29.83,South,179,2.0,5.0,78,0.00,,CLR,0.00,0.00,VWS V14.01,2013-11-01 12:30:00,
2013-11-01 07:35:00,54.8,48.1,29.83,South,180,2.0,5.0,78,0.00,,CLR,0.00,0.00,VWS V14.01,2013-11-01 12:35:00,
2013-11-01 07:40:00,54.8,47.7,29.83,South,180,2.0,5.0,77,0.00,,CLR,0.00,0.00,VWS V14.01,2013-11-01 12:40:00,
2013-11-01 07:45:00,54.8,47.7,29.83,South,180,3.0,4.0,77,0.00,,CLR,0.00,5.00,VWS V14.01,2013-11-01 12:45:00,
2013-11-01 07:50:00,55.0,47.9,29.84,South,180,2.0,4.0,77,0.00,,CLR,0.00,7.00,VWS V14.01,2013-11-01 12:50:00,
2013-11-01 07:55:00,55.1,48.0,29.84,South,180,3.0,4.0,77,0.00,,CLR,0.00,9.00,VWS V14.01,2013-11-01 12:55:00,
2013-11-01 08:00:00,55.3,48.6,29.84,South,180,2.0,5.0,78,0.00,,CLR,0.00,12.00,VWS V14.01,2013-11-01 13:00:00,
2013-11-01 08:05:00,55.3,48.6,29.84,South,180,1.0,4.0,78,0.00,,CLR,0.00,14.00,VWS V14.01,2013-11-01 13:05:00,
2013-11-01 08:10:00,55.3,48.6,29.84,South,180,0.0,4.0,78,0.00,,CLR,0.00,16.00,VWS V14.01,2013-11-01 13:10:00,
2013-11-01 08:15:00,55.3,48.6,29.84,South,180,2.0,3.0,78,0.00,,CLR,0.00,21.00,VWS V14.01,2013-11-01 13:15:00,
2013-11-01 08:20:00,55.3,48.6,29.84,South,180,3.0,4.0,78,0.00,,CLR,0.00,19.00,VWS V14.01,2013-11-01 13:20:00,
2013-11-01 08:25:00,55.3,48.6,29.84,South,180,3.0,4.0,78,0.00,,CLR,0.00,21.00,VWS V14.01,2013-11-01 13:25:00,
2013-11-01 08:30:00,55.3,48.6,29.84,South,180,3.0,4.0,78,0.00,,CLR,0.00,23.00,VWS V14.01,2013-11-01 13:30:00,
2013-11-01 08:35:00,55.6,49.2,29.85,South,180,3.0,4.0,79,0.00,,CLR,0.00,25.00,VWS V14.01,2013-11-01 13:35:00,
2013-11-01 08:40:00,55.9,49.8,29.85,South,180,3.0,4.0,80,0.00,,CLR,0.00,32.00,VWS V14.01,2013-11-01 13:40:00,
2013-11-01 08:45:00,56.2,50.5,29.85,South,180,5.0,5.0,81,0.00,,CLR,0.00,33.00,VWS V14.01,2013-11-01 13:45:00,
2013-11-01 08:50:00,56.2,50.5,29.85,South,180,2.0,6.0,81,0.00,,CLR,0.00,26.00,VWS V14.01,2013-11-01 13:50:00,
2013-11-01 08:55:00,56.2,50.5,29.85,South,180,3.0,5.0,81,0.00,,CLR,0.00,33.00,VWS V14.01,2013-11-01 13:55:00,
2013-11-01 09:00:00,56.3,50.5,29.85,South,179,3.0,6.0,81,0.00,,CLR,0.00,30.00,VWS V14.01,2013-11-01 14:00:00,
2013-11-01 09:05:00,56.3,50.2,29.86,South,180,3.0,5.0,80,0.00,,CLR,0.00,30.00,VWS V14.01,2013-11-01 14:05:00,
2013-11-01 09:10:00,56.5,50.4,29.86,South,180,5.0,5.0,80,0.00,,CLR,0.00,47.00,VWS V14.01,2013-11-01 14:10:00,
2013-11-01 09:15:00,56.6,50.5,29.86,South,180,4.0,6.0,80,0.00,,CLR,0.00,70.00,VWS V14.01,2013-11-01 14:15:00,
2013-11-01 09:20:00,56.7,50.6,29.86,South,182,4.0,7.0,80,0.00,,CLR,0.00,109.00,VWS V14.01,2013-11-01 14:20:00,
2013-11-01 09:25:00,56.7,50.9,29.86,South,181,3.0,7.0,81,0.00,,CLR,0.00,229.00,VWS V14.01,2013-11-01 14:25:00,
2013-11-01 09:30:00,56.7,50.6,29.86,South,179,5.0,9.0,80,0.00,,CLR,0.00,213.00,VWS V14.01,2013-11-01 14:30:00,
2013-11-01 09:35:00,56.9,50.5,29.86,South,180,5.0,10.0,79,0.00,,CLR,0.00,51.00,VWS V14.01,2013-11-01 14:35:00,
2013-11-01 09:40:00,57.0,50.6,29.86,South,186,5.0,10.0,79,0.00,,CLR,0.00,37.00,VWS V14.01,2013-11-01 14:40:00,
2013-11-01 09:45:00,57.2,50.8,29.86,South,182,4.0,6.0,79,0.00,,CLR,0.00,86.00,VWS V14.01,2013-11-01 14:45:00,
2013-11-01 09:50:00,57.5,50.7,29.87,South,173,7.0,7.0,78,0.00,,CLR,0.00,37.00,VWS V14.01,2013-11-01 14:50:00,
2013-11-01 09:55:00,57.8,51.0,29.87,South,178,5.0,9.0,78,0.00,,CLR,0.00,53.00,VWS V14.01,2013-11-01 14:55:00,
2013-11-01 10:00:00,58.0,50.8,29.87,South,178,5.0,10.0,77,0.00,,CLR,0.00,76.00,VWS V14.01,2013-11-01 15:00:00,
2013-11-01 10:05:00,58.3,50.8,29.86,South,183,5.0,11.0,76,0.00,,CLR,0.00,172.00,VWS V14.01,2013-11-01 15:05:00,
2013-11-01 10:10:00,58.6,50.7,29.86,South,175,9.0,12.0,75,0.00,,CLR,0.00,142.00,VWS V14.01,2013-11-01 15:10:00,
2013-11-01 10:15:00,58.9,50.6,29.86,SSW,196,6.0,10.0,74,0.00,,CLR,0.00,47.00,VWS V14.01,2013-11-01 15:15:00,
2013-11-01 10:20:00,59.2,50.6,29.87,SSW,196,5.0,11.0,73,0.00,,CLR,0.00,86.00,VWS V14.01,2013-11-01 15:20:00,
2013-11-01 10:25:00,59.6,51.0,29.87,South,190,5.0,11.0,73,0.00,,CLR,0.00,172.00,VWS V14.01,2013-11-01 15:25:00,
2013-11-01 10:30:00,59.9,50.5,29.87,South,179,7.0,12.0,71,0.00,,CLR,0.00,58.00,VWS V14.01,2013-11-01 15:30:00,
2013-11-01 10:35:00,60.4,50.2,29.86,SSW,198,9.0,13.0,69,0.00,,CLR,0.00,120.00,VWS V14.01,2013-11-01 15:35:00,
2013-11-01 10:40:00,60.7,50.1,29.86,South,189,6.0,13.0,68,0.00,,CLR,0.00,88.00,VWS V14.01,2013-11-01 15:40:00,
2013-11-01 10:45:00,61.3,50.3,29.86,SSW,196,8.0,12.0,67,0.00,,CLR,0.00,520.00,VWS V14.01,2013-11-01 15:45:00,
2013-11-01 10:50:00,61.8,50.3,29.86,South,183,6.0,12.0,66,0.00,,CLR,0.00,526.00,VWS V14.01,2013-11-01 15:50:00,
2013-11-01 10:55:00,62.4,50.9,29.86,South,173,7.0,11.0,66,0.00,,CLR,0.00,543.00,VWS V14.01,2013-11-01 15:55:00,
2013-11-01 11:00:00,63.1,51.6,29.86,South,169,10.0,11.0,66,0.00,,CLR,0.00,555.00,VWS V14.01,2013-11-01 16:00:00,
2013-11-01 11:05:00,63.4,51.0,29.86,South,174,6.0,12.0,64,0.00,,CLR,0.00,568.00,VWS V14.01,2013-11-01 16:05:00,
2013-11-01 11:10:00,64.0,51.2,29.86,South,186,3.0,12.0,63,0.00,,CLR,0.00,578.00,VWS V14.01,2013-11-01 16:10:00,
2013-11-01 11:15:00,64.8,51.9,29.86,South,180,7.0,7.0,63,0.00,,CLR,0.00,591.00,VWS V14.01,2013-11-01 16:15:00,
2013-11-01 11:20:00,65.3,50.6,29.86,South,179,6.0,12.0,59,0.00,,CLR,0.00,599.00,VWS V14.01,2013-11-01 16:20:00,
2013-11-01 11:25:00,65.8,50.2,29.86,South,169,6.0,13.0,57,0.00,,CLR,0.00,608.00,VWS V14.01,2013-11-01 16:25:00,
2013-11-01 11:30:00,66.1,50.4,29.86,SSE,161,7.0,13.0,57,0.00,,CLR,0.00,619.00,VWS V14.01,2013-11-01 16:30:00,
2013-11-01 11:35:00,66.4,50.2,29.86,South,190,5.0,9.0,56,0.00,,CLR,0.00,628.00,VWS V14.01,2013-11-01 16:35:00,
2013-11-01 11:40:00,66.9,51.2,29.86,South,185,5.0,10.0,57,0.00,,CLR,0.00,635.00,VWS V14.01,2013-11-01 16:40:00,
2013-11-01 11:45:00,67.4,51.2,29.86,SSW,193,8.0,11.0,56,0.00,,CLR,0.00,642.00,VWS V14.01,2013-11-01 16:45:00,
2013-11-01 11:50:00,67.6,50.9,29.86,South,191,7.0,11.0,55,0.00,,CLR,0.00,650.00,VWS V14.01,2013-11-01 16:50:00,
2013-11-01 11:55:00,67.9,50.7,29.86,South,175,9.0,11.0,54,0.00,,CLR,0.00,657.00,VWS V14.01,2013-11-01 16:55:00,
2013-11-01 12:00:00,68.6,51.3,29.86,SSW,206,6.0,11.0,54,0.00,,CLR,0.00,661.00,VWS V14.01,2013-11-01 17:00:00,
2013-11-01 12:05:00,69.1,49.7,29.85,SSW,207,5.0,12.0,50,0.00,,CLR,0.00,668.00,VWS V14.01,2013-11-01 17:05:00,
2013-11-01 12:10:00,69.8,50.3,29.85,South,190,6.0,12.0,50,0.00,,CLR,0.00,673.00,VWS V14.01,2013-11-01 17:10:00,
2013-11-01 12:15:00,69.9,49.9,29.85,SSE,164,9.0,12.0,49,0.00,,CLR,0.00,679.00,VWS V14.01,2013-11-01 17:15:00,
2013-11-01 12:20:00,70.1,51.2,29.85,SSW,194,9.0,12.0,51,0.00,,CLR,0.00,684.00,VWS V14.01,2013-11-01 17:20:00,
2013-11-01 12:25:00,70.3,50.3,29.85,South,186,4.0,11.0,49,0.00,,CLR,0.00,689.00,VWS V14.01,2013-11-01 17:25:00,
2013-11-01 12:30:00,70.9,50.2,29.85,South,185,5.0,11.0,48,0.00,,CLR,0.00,693.00,VWS V14.01,2013-11-01 17:30:00,
2013-11-01 12:35:00,71.3,50.0,29.85,SSW,200,4.0,12.0,47,0.00,,CLR,0.00,694.00,VWS V14.01,2013-11-01 17:35:00,
2013-11-01 12:40:00,71.5,49.7,29.85,SSW,195,7.0,12.0,46,0.00,,CLR,0.00,698.00,VWS V14.01,2013-11-01 17:40:00,
2013-11-01 12:45:00,71.5,49.7,29.85,South,182,5.0,11.0,46,0.00,,CLR,0.00,701.00,VWS V14.01,2013-11-01 17:45:00,
2013-11-01 12:50:00,71.3,48.9,29.84,South,178,11.0,15.0,45,0.00,,CLR,0.00,703.00,VWS V14.01,2013-11-01 17:50:00,
2013-11-01 12:55:00,71.1,49.3,29.84,South,184,4.0,13.0,46,0.00,,CLR,0.00,703.00,VWS V14.01,2013-11-01 17:55:00,
2013-11-01 13:00:00,71.1,49.9,29.84,South,188,13.0,13.0,47,0.00,,CLR,0.00,703.00,VWS V14.01,2013-11-01 18:00:00,
2013-11-01 13:05:00,71.3,50.6,29.83,South,178,7.0,13.0,48,0.00,,CLR,0.00,705.00,VWS V14.01,2013-11-01 18:05:00,
2013-11-01 13:10:00,71.1,48.7,29.83,South,176,7.0,13.0,45,0.00,,CLR,0.00,707.00,VWS V14.01,2013-11-01 18:10:00,
2013-11-01 13:15:00,71.5,50.8,29.83,South,182,7.0,9.0,48,0.00,,CLR,0.00,705.00,VWS V14.01,2013-11-01 18:15:00,
2013-11-01 13:20:00,71.8,51.1,29.82,South,189,5.0,10.0,48,0.00,,CLR,0.00,703.00,VWS V14.01,2013-11-01 18:20:00,
2013-11-01 13:25:00,72.1,49.6,29.82,South,180,10.0,11.0,45,0.00,,CLR,0.00,703.00,VWS V14.01,2013-11-01 18:25:00,
2013-11-01 13:30:00,72.1,51.9,29.82,South,179,7.0,12.0,49,0.00,,CLR,0.00,701.00,VWS V14.01,2013-11-01 18:30:00,
2013-11-01 13:35:00,72.3,49.8,29.82,South,190,10.0,10.0,45,0.00,,CLR,0.00,698.00,VWS V14.01,2013-11-01 18:35:00,
2013-11-01 13:40:00,72.5,50.0,29.82,South,188,6.0,12.0,45,0.00,,CLR,0.00,696.00,VWS V14.01,2013-11-01 18:40:00,
2013-11-01 13:45:00,72.8,52.5,29.82,South,176,3.0,7.0,49,0.00,,CLR,0.00,693.00,VWS V14.01,2013-11-01 18:45:00,
2013-11-01 13:50:00,73.2,50.6,29.81,SSW,197,6.0,10.0,45,0.00,,CLR,0.00,691.00,VWS V14.01,2013-11-01 18:50:00,
2013-11-01 13:55:00,73.3,50.7,29.81,South,191,10.0,10.0,45,0.00,,CLR,0.00,687.00,VWS V14.01,2013-11-01 18:55:00,
2013-11-01 14:00:00,73.3,50.7,29.81,South,174,5.0,10.0,45,0.00,,CLR,0.00,682.00,VWS V14.01,2013-11-01 19:00:00,
2013-11-01 14:05:00,73.7,51.1,29.81,South,178,2.0,7.0,45,0.00,,CLR,0.00,675.00,VWS V14.01,2013-11-01 19:05:00,
2013-11-01 14:10:00,74.2,50.9,29.81,South,173,3.0,7.0,44,0.00,,CLR,0.00,670.00,VWS V14.01,2013-11-01 19:10:00,
2013-11-01 14:15:00,74.6,51.3,29.81,South,177,5.0,6.0,44,0.00,,CLR,0.00,664.00,VWS V14.01,2013-11-01 19:15:00,
2013-11-01 14:20:00,74.7,50.7,29.80,South,184,5.0,10.0,43,0.00,,CLR,0.00,657.00,VWS V14.01,2013-11-01 19:20:00,
2013-11-01 14:25:00,75.1,51.1,29.80,South,181,5.0,9.0,43,0.00,,CLR,0.00,652.00,VWS V14.01,2013-11-01 19:25:00,
2013-11-01 14:30:00,75.1,50.5,29.80,South,175,3.0,9.0,42,0.00,,CLR,0.00,645.00,VWS V14.01,2013-11-01 19:30:00,
2013-11-01 14:35:00,75.3,50.0,29.80,South,171,3.0,9.0,41,0.00,,CLR,0.00,638.00,VWS V14.01,2013-11-01 19:35:00,
2013-11-01 14:40:00,75.4,50.7,29.80,South,177,5.0,9.0,42,0.00,,CLR,0.00,631.00,VWS V14.01,2013-11-01 19:40:00,
2013-11-01 14:45:00,75.6,51.5,29.80,South,177,3.0,7.0,43,0.00,,CLR,0.00,622.00,VWS V14.01,2013-11-01 19:45:00,
2013-11-01 14:50:00,75.8,50.5,29.80,South,174,3.0,7.0,41,0.00,,CLR,0.00,610.00,VWS V14.01,2013-11-01 19:50:00,
2013-11-01 14:55:00,75.8,51.1,29.80,South,175,2.0,5.0,42,0.00,,CLR,0.00,603.00,VWS V14.01,2013-11-01 19:55:00,
2013-11-01 15:00:00,76.3,51.5,29.80,South,175,4.0,5.0,42,0.00,,CLR,0.00,594.00,VWS V14.01,2013-11-01 20:00:00,
2013-11-01 15:05:00,76.5,51.1,29.80,South,175,0.0,5.0,41,0.00,,CLR,0.00,584.00,VWS V14.01,2013-11-01 20:05:00,
2013-11-01 15:10:00,76.8,49.3,29.80,South,175,4.0,6.0,38,0.00,,CLR,0.00,573.00,VWS V14.01,2013-11-01 20:10:00,
2013-11-01 15:15:00,76.7,51.9,29.80,South,173,1.0,6.0,42,0.00,,CLR,0.00,561.00,VWS V14.01,2013-11-01 20:15:00,
2013-11-01 15:20:00,76.8,50.7,29.80,South,173,0.0,6.0,40,0.00,,CLR,0.00,550.00,VWS V14.01,2013-11-01 20:20:00,
2013-11-01 15:25:00,77.4,49.8,29.80,South,173,0.0,4.0,38,0.00,,CLR,0.00,541.00,VWS V14.01,2013-11-01 20:25:00,
2013-11-01 15:30:00,77.9,49.6,29.80,South,173,0.0,5.0,37,0.00,,CLR,0.00,230.00,VWS V14.01,2013-11-01 20:30:00,
2013-11-01 15:36:00,77.9,50.3,29.80,South,173,3.0,4.0,38,0.00,,FEW055,0.00,520.00,VWS V14.01,2013-11-01 20:36:00,
2013-11-01 15:40:00,75.4,50.7,29.80,South,178,4.0,9.0,42,0.00,,CLR,0.00,626.00,VWS V15.00,2013-11-01 20:40:00,
2013-11-01 15:41:00,77.9,51.0,29.80,South,173,0.0,4.0,39,0.00,,FEW055,0.00,515.00,VWS V14.01,2013-11-01 20:41:00,
2013-11-01 15:46:00,78.3,49.9,29.80,South,173,0.0,2.0,37,0.00,,FEW055,0.00,79.00,VWS V14.01,2013-11-01 20:46:00,
2013-11-01 15:50:00,75.8,51.1,29.80,South,174,5.0,7.0,42,0.00,,CLR,0.00,608.00,VWS V15.00,2013-11-01 20:50:00,
2013-11-01 15:51:00,77.9,48.8,29.80,South,173,0.0,2.0,36,0.00,,FEW055,0.00,466.00,VWS V14.01,2013-11-01 20:51:00,
2013-11-01 15:56:00,77.7,49.4,29.80,South,173,0.0,0.0,37,0.00,,FEW055,0.00,480.00,VWS V14.01,2013-11-01 20:56:00,
2013-11-01 16:00:00,76.5,51.1,29.80,South,175,2.0,5.0,41,0.00,,CLR,0.00,587.00,VWS V15.00,2013-11-01 21:00:00,
2013-11-01 16:01:00,77.7,49.4,29.80,South,173,4.0,5.0,37,0.00,,FEW055,0.00,462.00,VWS V14.01,2013-11-01 21:01:00,
2013-11-01 16:06:00,78.1,49.7,29.80,South,173,2.0,3.0,37,0.00,,FEW055,0.00,461.00,VWS V14.01,2013-11-01 21:06:00,
2013-11-01 16:10:00,76.8,50.7,29.80,South,173,4.0,7.0,40,0.00,,CLR,0.00,568.00,VWS V15.00,2013-11-01 21:10:00,
2013-11-01 16:11:00,78.1,49.7,29.80,South,173,2.0,3.0,37,0.00,,FEW055,0.00,446.00,VWS V14.01,2013-11-01 21:11:00,
2013-11-01 16:16:00,78.6,48.7,29.80,South,173,0.0,3.0,35,0.00,,FEW055,0.00,427.00,VWS V14.01,2013-11-01 21:16:00,
2013-11-01 16:20:00,77.0,50.8,29.80,South,173,2.0,6.0,40,0.00,,CLR,0.00,547.00,VWS V15.00,2013-11-01 21:20:00,
2013-11-01 16:21:00,78.5,49.3,29.80,South,173,0.0,4.0,36,0.00,,FEW055,0.00,411.00,VWS V14.01,2013-11-01 21:21:00,
2013-11-01 16:26:00,78.5,48.6,29.80,South,173,2.0,3.0,35,0.00,,FEW055,0.00,397.00,VWS V14.01,2013-11-01 21:26:00,
2013-11-01 16:30:00,78.1,49.7,29.80,South,173,4.0,5.0,37,0.00,,CLR,0.00,524.00,VWS V15.00,2013-11-01 21:30:00,
2013-11-01 16:31:00,78.3,49.2,29.80,South,173,0.0,3.0,36,0.00,,FEW055,0.00,374.00,VWS V14.01,2013-11-01 21:31:00,
2013-11-01 16:36:00,78.3,48.4,29.80,South,173,0.0,2.0,35,0.00,,CLR,0.00,357.00,VWS V14.01,2013-11-01 21:36:00,
2013-11-01 16:40:00,78.1,50.5,29.80,South,173,0.0,4.0,38,0.00,,CLR,0.00,512.00,VWS V15.00,2013-11-01 21:40:00,
2013-11-01 16:41:00,78.3,48.4,29.80,South,173,0.0,2.0,35,0.00,,CLR,0.00,70.00,VWS V14.01,2013-11-01 21:41:00,
2013-11-01 16:46:00,77.7,47.9,29.80,South,173,0.0,0.0,35,0.00,,CLR,0.00,72.00,VWS V14.01,2013-11-01 21:46:00,
2013-11-01 16:50:00,77.7,48.7,29.80,South,173,0.0,2.0,36,0.00,,CLR,0.00,494.00,VWS V15.00,2013-11-01 21:50:00,
2013-11-01 16:51:00,77.2,48.9,29.81,South,173,0.0,0.0,37,0.00,,CLR,0.00,144.00,VWS V14.01,2013-11-01 21:51:00,
2013-11-01 16:56:00,77.0,48.8,29.81,South,173,0.0,0.0,37,0.00,,CLR,0.00,346.00,VWS V14.01,2013-11-01 21:56:00,
2013-11-01 17:00:00,77.9,49.6,29.80,South,173,0.0,5.0,37,0.00,,CLR,0.00,462.00,VWS V15.00,2013-11-01 22:00:00,
2013-11-01 17:01:00,77.4,49.1,29.81,South,173,0.0,0.0,37,0.00,,CLR,0.00,334.00,VWS V14.01,2013-11-01 22:01:00,
2013-11-01 17:06:00,77.6,47.8,29.82,South,173,0.0,0.0,35,0.00,,CLR,0.00,294.00,VWS V14.01,2013-11-01 22:06:00,
2013-11-01 17:10:00,78.5,50.1,29.80,South,173,0.0,3.0,37,0.00,,CLR,0.00,434.00,VWS V15.00,2013-11-01 22:10:00,
2013-11-01 17:11:00,77.9,47.3,29.82,South,173,0.0,0.0,34,0.00,,CLR,0.00,269.00,VWS V14.01,2013-11-01 22:11:00,
2013-11-01 17:16:00,78.1,47.5,29.82,South,173,0.0,0.0,34,0.00,,CLR,0.00,248.00,VWS V14.01,2013-11-01 22:16:00,
2013-11-01 17:20:00,78.5,48.6,29.80,South,173,2.0,4.0,35,0.00,,CLR,0.00,406.00,VWS V15.00,2013-11-01 22:20:00,
2013-11-01 17:21:00,78.3,48.4,29.82,South,173,0.0,2.0,35,0.00,,CLR,0.00,51.00,VWS V14.01,2013-11-01 22:21:00,
2013-11-01 17:26:00,78.3,49.9,29.82,South,173,0.0,0.0,37,0.00,,CLR,0.00,134.00,VWS V14.01,2013-11-01 22:26:00,
2013-11-01 17:30:00,78.3,48.4,29.80,South,173,1.0,3.0,35,0.00,,CLR,0.00,364.00,VWS V15.00,2013-11-01 22:30:00,
2013-11-01 17:31:00,78.1,50.5,29.82,South,173,0.0,0.0,38,0.00,,CLR,0.00,84.00,VWS V14.01,2013-11-01 22:31:00,
2013-11-01 17:36:00,77.6,50.0,29.82,South,173,0.0,0.0,38,0.00,,BKN075,0.00,153.00,VWS V14.01,2013-11-01 22:36:00,
2013-11-01 17:40:00,78.1,48.2,29.80,South,173,0.0,2.0,35,0.00,,CLR,0.00,69.00,VWS V15.00,2013-11-01 22:40:00,
2013-11-01 17:41:00,77.2,50.3,29.82,South,173,0.0,0.0,39,0.00,,BKN075,0.00,141.00,VWS V14.01,2013-11-01 22:41:00,
2013-11-01 17:46:00,76.8,50.7,29.82,South,173,0.0,0.0,40,0.00,,BKN075,0.00,121.00,VWS V14.01,2013-11-01 22:46:00,
2013-11-01 17:50:00,77.2,49.7,29.81,South,173,0.0,0.0,38,0.00,,CLR,0.00,336.00,VWS V15.00,2013-11-01 22:50:00,
2013-11-01 17:51:00,76.3,50.9,29.83,South,173,2.0,2.0,41,0.00,,BKN075,0.00,111.00,VWS V14.01,2013-11-01 22:51:00,
2013-11-01 17:56:00,76.0,50.6,29.83,South,173,0.0,0.0,41,0.00,,BKN075,0.00,84.00,VWS V14.01,2013-11-01 22:56:00,
2013-11-01 18:00:00,77.6,47.8,29.82,South,173,0.0,0.0,35,0.00,,CLR,0.00,304.00,VWS V15.00,2013-11-01 23:00:00,
2013-11-01 18:01:00,75.4,50.7,29.83,South,173,1.0,2.0,42,0.00,,BKN075,0.00,35.00,VWS V14.01,2013-11-01 23:01:00,
2013-11-01 18:06:00,74.7,50.1,29.84,SSE,150,3.0,3.0,42,0.00,,BKN075,0.00,54.00,VWS V14.01,2013-11-01 23:06:00,
2013-11-01 18:10:00,77.9,47.3,29.82,South,173,0.0,0.0,34,0.00,,CLR,0.00,262.00,VWS V15.00,2013-11-01 23:10:00,
2013-11-01 18:11:00,74.0,50.1,29.84,ENE,74,2.0,5.0,43,0.00,,BKN075,0.00,37.00,VWS V14.01,2013-11-01 23:11:00,
2013-11-01 18:16:00,73.3,50.7,29.84,NNE,31,4.0,6.0,45,0.00,,BKN075,0.00,26.00,VWS V14.01,2013-11-01 23:16:00,
2013-11-01 18:20:00,78.3,48.4,29.82,South,173,0.0,2.0,35,0.00,,CLR,0.00,47.00,VWS V15.00,2013-11-01 23:20:00,
2013-11-01 18:21:00,72.7,50.8,29.85,NNE,31,3.0,6.0,46,0.00,,BKN075,0.00,18.00,VWS V14.01,2013-11-01 23:21:00,
2013-11-01 18:26:00,72.0,50.7,29.85,NNE,31,2.0,5.0,47,0.00,,BKN075,0.00,11.00,VWS V14.01,2013-11-01 23:26:00,
2013-11-01 18:30:00,77.9,50.3,29.82,South,173,0.0,0.0,38,0.00,,CLR,0.00,93.00,VWS V15.00,2013-11-01 23:30:00,
2013-11-01 18:31:00,71.5,50.2,29.85,NNE,30,4.0,5.0,47,0.00,,BKN075,0.00,7.00,VWS V14.01,2013-11-01 23:31:00,
2013-11-01 18:36:00,70.9,50.2,29.85,NNE,30,4.0,5.0,48,0.00,,SCT085,0.00,5.00,VWS V14.01,2013-11-01 23:36:00,
2013-11-01 18:40:00,77.0,50.8,29.82,South,173,0.0,0.0,40,0.00,,CLR,0.00,137.00,VWS V15.00,2013-11-01 23:40:00,
2013-11-01 18:41:00,70.4,49.8,29.85,NNE,23,4.0,7.0,48,0.00,,SCT085,0.00,0.00,VWS V14.01,2013-11-01 23:41:00,
2013-11-01 18:46:00,70.1,49.5,29.85,NNE,20,5.0,6.0,48,0.00,,SCT085,0.00,0.00,VWS V14.01,2013-11-01 23:46:00,
2013-11-01 18:50:00,76.1,50.7,29.83,South,173,0.0,2.0,41,0.00,,CLR,0.00,104.00,VWS V15.00,2013-11-01 23:50:00,
2013-11-01 18:51:00,69.8,49.8,29.86,NNE,19,5.0,6.0,49,0.00,,SCT085,0.00,0.00,VWS V14.01,2013-11-01 23:51:00,
2013-11-01 18:56:00,69.6,50.2,29.86,NNE,19,3.0,4.0,50,0.00,,SCT085,0.00,0.00,VWS V14.01,2013-11-01 23:56:00,
2013-11-01 19:00:00,75.1,49.8,29.84,SSE,151,2.0,5.0,41,0.00,,CLR,0.00,49.00,VWS V15.00,2013-11-02 00:00:00,
2013-11-01 19:01:00,69.4,51.0,29.86,NNE,19,2.0,4.0,52,0.00,,SCT085,0.00,0.00,VWS V14.01,2013-11-02 00:01:00,
2013-11-01 19:06:00,69.1,51.8,29.88,NNE,19,3.0,4.0,54,0.00,,SCT085,0.00,0.00,VWS V14.01,2013-11-02 00:06:00,
2013-11-01 19:10:00,73.9,50.6,29.84,NE,34,3.0,7.0,44,0.00,,CLR,0.00,35.00,VWS V15.00,2013-11-02 00:10:00,
2013-11-01 19:11:00,68.8,52.0,29.88,NNE,19,3.0,4.0,55,0.00,,FEW065,0.00,0.00,VWS V14.01,2013-11-02 00:11:00,
2013-11-01 19:16:00,68.4,52.1,29.88,NNE,19,2.0,4.0,56,0.00,,FEW065,0.00,0.00,VWS V14.01,2013-11-02 00:16:00,
2013-11-01 19:20:00,72.5,51.2,29.85,NNE,31,4.0,6.0,47,0.00,,CLR,0.00,14.00,VWS V15.00,2013-11-02 00:20:00,
2013-11-01 19:21:00,68.1,52.3,29.89,NNE,19,5.0,5.0,57,0.00,,FEW065,0.00,0.00,VWS V14.01,2013-11-02 00:21:00,
2013-11-01 19:26:00,67.8,52.5,29.89,NNE,19,4.0,4.0,58,0.00,,FEW065,0.00,0.00,VWS V14.01,2013-11-02 00:26:00,
2013-11-01 19:30:00,71.1,50.4,29.85,NNE,30,4.0,5.0,48,0.00,,CLR,0.00,5.00,VWS V15.00,2013-11-02 00:30:00,
2013-11-01 19:31:00,67.6,52.3,29.89,NNE,19,1.0,5.0,58,0.00,,FEW065,0.00,0.00,VWS V14.01,2013-11-02 00:31:00,
2013-11-01 19:36:00,67.3,52.5,29.89,NNE,19,3.0,4.0,59,0.00,,FEW065,0.00,0.00,VWS V14.01,2013-11-02 00:36:00,
2013-11-01 19:40:00,70.3,49.7,29.85,NNE,23,4.0,7.0,48,0.00,,CLR,0.00,0.00,VWS V15.00,2013-11-02 00:40:00,
2013-11-01 19:41:00,67.1,52.8,29.89,NNE,19,2.0,4.0,60,0.00,,FEW065,0.00,0.00,VWS V14.01,2013-11-02 00:41:00,
2013-11-01 19:46:00,66.8,52.5,29.89,NNE,19,2.0,4.0,60,0.00,,FEW065,0.00,0.00,VWS V14.01,2013-11-02 00:46:00,
2013-11-01 19:50:00,69.6,49.6,29.86,NNE,19,3.0,6.0,49,0.00,,CLR,0.00,0.00,VWS V15.00,2013-11-02 00:50:00,
2013-11-01 19:51:00,66.4,52.6,29.91,NNE,19,2.0,5.0,61,0.00,,FEW065,0.00,0.00,VWS V14.01,2013-11-02 00:51:00,
2013-11-01 19:56:00,66.1,52.7,29.91,NNE,19,3.0,5.0,62,0.00,,FEW065,0.00,0.00,VWS V14.01,2013-11-02 00:56:00,
2013-11-01 20:00:00,69.3,52.0,29.88,NNE,19,2.0,4.0,54,0.00,,CLR,0.00,0.00,VWS V15.00,2013-11-02 01:00:00,
2013-11-01 20:01:00,65.8,52.4,29.91,NNE,19,3.0,5.0,62,0.00,,FEW065,0.00,0.00,VWS V14.01,2013-11-02 01:01:00,
2013-11-01 20:06:00,65.6,52.2,29.92,NNE,19,3.0,4.0,62,0.00,,FEW065,0.00,0.00,VWS V14.01,2013-11-02 01:06:00,
2013-11-01 20:10:00,68.6,51.8,29.88,NNE,19,4.0,4.0,55,0.00,,CLR,0.00,0.00,VWS V15.00,2013-11-02 01:10:00,
2013-11-01 20:11:00,65.3,52.4,29.92,NNE,19,3.0,4.0,63,0.00,,FEW065,0.00,0.00,VWS V14.01,2013-11-02 01:11:00,
2013-11-01 20:16:00,65.2,52.3,29.92,NNE,19,2.0,4.0,63,0.00,,FEW065,0.00,0.00,VWS V14.01,2013-11-02 01:16:00,
2013-11-01 20:20:00,67.9,52.1,29.89,NNE,19,4.0,5.0,57,0.00,,CLR,0.00,0.00,VWS V15.00,2013-11-02 01:20:00,
2013-11-01 20:21:00,64.8,51.9,29.93,NNE,19,4.0,5.0,63,0.00,,FEW065,0.00,0.00,VWS V14.01,2013-11-02 01:21:00,
2013-11-01 20:26:00,64.7,51.4,29.93,NNE,19,4.0,5.0,62,0.00,,FEW065,0.00,0.00,VWS V14.01,2013-11-02 01:26:00,
2013-11-01 20:30:00,67.4,52.1,29.89,NNE,19,2.0,5.0,58,0.00,,CLR,0.00,0.00,VWS V15.00,2013-11-02 01:30:00,
2013-11-01 20:31:00,64.7,51.8,29.93,NNE,19,4.0,6.0,63,0.00,,FEW065,0.00,0.00,VWS V14.01,2013-11-02 01:31:00,
2013-11-01 20:36:00,64.5,51.2,29.94,NNE,19,2.0,3.0,62,0.00,,SCT070,0.00,0.00,VWS V14.01,2013-11-02 01:36:00,
2013-11-01 20:40:00,66.9,52.6,29.89,NNE,19,3.0,4.0,60,0.00,,CLR,0.00,0.00,VWS V15.00,2013-11-02 01:40:00,
2013-11-01 20:41:00,64.3,51.0,29.94,NNE,19,3.0,4.0,62,0.00,,SCT070,0.00,0.00,VWS V14.01,2013-11-02 01:41:00,
2013-11-01 20:46:00,64.3,50.6,29.94,NNE,17,5.0,5.0,61,0.00,,SCT070,0.00,0.00,VWS V14.01,2013-11-02 01:46:00,
2013-11-01 20:50:00,66.3,52.5,29.91,NNE,19,3.0,5.0,61,0.00,,CLR,0.00,0.00,VWS V15.00,2013-11-02 01:50:00,
2013-11-01 20:51:00,64.2,50.9,29.94,NNE,17,3.0,6.0,62,0.00,,SCT070,0.00,0.00,VWS V14.01,2013-11-02 01:51:00,
2013-11-01 20:56:00,64.2,50.9,29.94,NNE,17,3.0,6.0,62,0.00,,SCT070,0.00,0.00,VWS V14.01,2013-11-02 01:56:00,
2013-11-01 21:00:00,65.8,52.4,29.92,NNE,19,3.0,5.0,62,0.00,,CLR,0.00,0.00,VWS V15.00,2013-11-02 02:00:00,
2013-11-01 21:01:00,63.9,50.6,29.94,NNE,17,3.0,6.0,62,0.00,,SCT070,0.00,0.00,VWS V14.01,2013-11-02 02:01:00,
2013-11-01 21:06:00,63.9,50.6,29.95,NNE,17,4.0,5.0,62,0.00,,SCT070,0.00,0.00,VWS V14.01,2013-11-02 02:06:00,
2013-11-01 21:10:00,65.2,52.3,29.92,NNE,19,3.0,4.0,63,0.00,,CLR,0.00,0.00,VWS V15.00,2013-11-02 02:10:00,
2013-11-01 21:11:00,63.7,50.5,29.95,NNE,17,1.0,5.0,62,0.00,,SCT070,0.00,0.00,VWS V14.01,2013-11-02 02:11:00,
2013-11-01 21:16:00,63.5,50.3,29.95,NNE,17,3.0,4.0,62,0.00,,SCT070,0.00,0.00,VWS V14.01,2013-11-02 02:16:00,
2013-11-01 21:20:00,64.8,51.5,29.93,NNE,19,2.0,5.0,62,0.00,,CLR,0.00,0.00,VWS V15.00,2013-11-02 02:20:00,
2013-11-01 21:21:00,63.4,49.7,29.97,NNE,17,3.0,6.0,61,0.00,,SCT070,0.00,0.00,VWS V14.01,2013-11-02 02:21:00,
2013-11-01 21:26:00,63.4,49.3,29.97,NNE,16,3.0,5.0,60,0.00,,SCT070,0.00,0.00,VWS V14.01,2013-11-02 02:26:00,
2013-11-01 21:30:00,64.5,51.6,29.94,NNE,19,3.0,6.0,63,0.00,,CLR,0.00,0.00,VWS V15.00,2013-11-02 02:30:00,
2013-11-01 21:31:00,63.2,49.1,29.97,North,5,4.0,7.0,60,0.00,,SCT070,0.00,0.00,VWS V14.01,2013-11-02 02:31:00,
2013-11-01 21:36:00,63.2,48.7,29.97,North,5,4.0,5.0,59,0.00,,FEW070,0.00,0.00,VWS V14.01,2013-11-02 02:36:00,
2013-11-01 21:40:00,64.3,50.6,29.94,NNE,19,3.0,5.0,61,0.00,,CLR,0.00,0.00,VWS V15.00,2013-11-02 02:40:00,
2013-11-01 21:41:00,63.2,48.7,29.97,North,5,4.0,6.0,59,0.00,,FEW070,0.00,0.00,VWS V14.01,2013-11-02 02:41:00,
2013-11-01 21:46:00,63.2,48.7,29.97,North,5,4.0,8.0,59,0.00,,FEW070,0.00,0.00,VWS V14.01,2013-11-02 02:46:00,
2013-11-01 21:50:00,64.2,50.9,29.94,NNE,17,3.0,6.0,62,0.00,,CLR,0.00,0.00,VWS V15.00,2013-11-02 02:50:00,
2013-11-01 21:51:00,63.2,47.7,29.99,North,360,4.0,9.0,57,0.00,,FEW070,0.00,0.00,VWS V14.01,2013-11-02 02:51:00,
2013-11-01 21:56:00,63.4,47.5,29.99,NNE,17,5.0,9.0,56,0.00,,FEW070,0.00,0.00,VWS V14.01,2013-11-02 02:56:00,
2013-11-01 22:00:00,63.9,50.6,29.95,NNE,17,5.0,6.0,62,0.00,,CLR,0.00,0.00,VWS V15.00,2013-11-02 03:00:00,
2013-11-01 22:01:00,63.5,47.5,29.99,NNE,15,6.0,9.0,56,0.00,,FEW070,0.00,0.00,VWS V14.01,2013-11-02 03:01:00,
2013-11-01 22:06:00,63.5,47.5,29.99,North,5,5.0,7.0,56,0.00,,FEW070,0.00,0.00,VWS V14.01,2013-11-02 03:06:00,
2013-11-01 22:10:00,63.5,50.3,29.95,NNE,17,3.0,5.0,62,0.00,,CLR,0.00,0.00,VWS V15.00,2013-11-02 03:10:00,
2013-11-01 22:11:00,63.5,47.1,29.99,North,5,4.0,8.0,55,0.00,,FEW070,0.00,0.00,VWS V14.01,2013-11-02 03:11:00,
2013-11-01 22:16:00,63.5,46.6,29.99,NNE,15,6.0,8.0,54,0.00,,FEW070,0.00,0.00,VWS V14.01,2013-11-02 03:16:00,
2013-11-01 22:20:00,63.4,49.7,29.97,NNE,17,4.0,6.0,61,0.00,,CLR,0.00,0.00,VWS V15.00,2013-11-02 03:20:00,
2013-11-01 22:21:00,63.5,46.6,30.00,North,10,7.0,10.0,54,0.00,,FEW070,0.00,0.00,VWS V14.01,2013-11-02 03:21:00,
2013-11-01 22:26:00,63.5,46.1,30.00,North,5,12.0,13.0,53,0.00,,FEW070,0.00,0.00,VWS V14.01,2013-11-02 03:26:00,
2013-11-01 22:30:00,63.2,48.7,29.97,North,5,4.0,7.0,59,0.00,,CLR,0.00,0.00,VWS V15.00,2013-11-02 03:30:00,
2013-11-01 22:31:00,63.5,45.1,30.00,NNE,14,7.0,13.0,51,0.00,,FEW070,0.00,0.00,VWS V14.01,2013-11-02 03:31:00,
2013-11-01 22:36:00,63.5,45.6,30.02,North,360,13.0,13.0,52,0.00,,FEW080,0.00,0.00,VWS V14.01,2013-11-02 03:36:00,
2013-11-01 22:40:00,63.2,48.7,29.97,North,5,3.0,6.0,59,0.00,,CLR,0.00,0.00,VWS V15.00,2013-11-02 03:40:00,
2013-11-01 22:41:00,63.5,45.1,30.02,NNE,12,7.0,14.0,51,0.00,,FEW080,0.00,0.00,VWS V14.01,2013-11-02 03:41:00,
2013-11-01 22:46:00,63.5,45.1,30.02,NNE,17,10.0,11.0,51,0.00,,FEW080,0.00,0.00,VWS V14.01,2013-11-02 03:46:00,
2013-11-01 22:50:00,63.4,47.9,29.99,North,360,3.0,9.0,57,0.00,,CLR,0.00,0.00,VWS V15.00,2013-11-02 03:50:00,
2013-11-01 22:51:00,63.4,44.5,30.02,North,5,10.0,14.0,50,0.00,,FEW080,0.00,0.00,VWS V14.01,2013-11-02 03:51:00,
2013-11-01 22:56:00,63.4,45.0,30.02,NNE,17,6.0,9.0,51,0.00,,FEW080,0.00,0.00,VWS V14.01,2013-11-02 03:56:00,
2013-11-01 23:00:00,63.5,47.5,29.99,NNE,13,5.0,9.0,56,0.00,,CLR,0.00,0.00,VWS V15.00,2013-11-02 04:00:00,
2013-11-01 23:01:00,63.2,44.8,30.02,North,5,5.0,11.0,51,0.00,,FEW080,0.00,0.00,VWS V14.01,2013-11-02 04:01:00,
2013-11-01 23:02:00,63.1,44.7,30.02,NNE,13,7.0,11.0,51,0.00,,FEW080,0.00,0.00,VWS V14.01,2013-11-02 04:02:00,
2013-11-01 23:07:00,62.9,45.0,30.03,North,360,5.0,8.0,52,0.00,,FEW080,0.00,0.00,VWS V14.01,2013-11-02 04:07:00,
2013-11-01 23:10:00,63.5,46.6,29.99,North,360,3.0,8.0,54,0.00,,CLR,0.00,0.00,VWS V15.00,2013-11-02 04:10:00,
2013-11-01 23:12:00,62.7,44.8,30.03,NNE,17,8.0,10.0,52,0.00,,FEW080,0.00,0.00,VWS V14.01,2013-11-02 04:12:00,
2013-11-01 23:17:00,62.4,44.6,30.03,North,360,5.0,10.0,52,0.00,,FEW080,0.00,0.00,VWS V14.01,2013-11-02 04:17:00,
2013-11-01 23:20:00,63.5,46.6,30.00,NNE,12,9.0,12.0,54,0.00,,CLR,0.00,0.00,VWS V15.00,2013-11-02 04:20:00,
2013-11-01 23:22:00,62.4,44.6,30.04,North,5,8.0,10.0,52,0.00,,FEW080,0.00,0.00,VWS V14.01,2013-11-02 04:22:00,
2013-11-01 23:27:00,62.3,44.5,30.04,NNE,15,6.0,14.0,52,0.00,,FEW080,0.00,0.00,VWS V14.01,2013-11-02 04:27:00,
2013-11-01 23:30:00,63.5,45.1,30.02,NNE,19,7.0,13.0,51,0.00,,CLR,0.00,0.00,VWS V15.00,2013-11-02 04:30:00,
2013-11-01 23:32:00,62.3,44.0,30.04,NNE,20,6.0,15.0,51,0.00,,FEW080,0.00,0.00,VWS V14.01,2013-11-02 04:32:00,
2013-11-01 23:37:00,62.1,43.8,30.05,NNE,13,10.0,11.0,51,0.00,,CLR,0.00,0.00,VWS V14.01,2013-11-02 04:37:00,
2013-11-01 23:40:00,63.5,45.1,30.02,North,10,5.0,14.0,51,0.00,,CLR,0.00,0.00,VWS V15.00,2013-11-02 04:40:00,
2013-11-01 23:42:00,62.1,44.3,30.05,NNE,15,6.0,12.0,52,0.00,,CLR,0.00,0.00,VWS V14.01,2013-11-02 04:42:00,
2013-11-01 23:47:00,62.0,43.7,30.05,NNE,17,7.0,13.0,51,0.00,,CLR,0.00,0.00,VWS V14.01,2013-11-02 04:47:00,
2013-11-01 23:50:00,63.4,44.5,30.02,NNE,16,9.0,14.0,50,0.00,,CLR,0.00,0.00,VWS V15.00,2013-11-02 04:50:00,
2013-11-01 23:52:00,62.0,43.7,30.05,NNE,21,9.0,14.0,51,0.00,,CLR,0.00,0.00,VWS V14.01,2013-11-02 04:52:00,
2013-11-01 23:57:00,61.8,43.5,30.05,North,360,9.0,14.0,51,0.00,,CLR,0.00,0.00,VWS V14.01,2013-11-02 04:57:00,